DateTime,DeltaTime,Roll,TargetAngle,Position,Power
2022-06-03 10:32:43.553,0,0.29,0.14,9,18.63
2022-06-03 10:32:43.667,0.114000588655472,-0.42,-8,7,76.68
2022-06-03 10:32:43.783,0.230002775788307,0.6,3.37,6,-4.11
2022-06-03 10:32:43.897,0.344003364443779,0.35,-3.17,2,41.46
2022-06-03 10:32:44.007,0.454000756144524,0.14,-3.68,1,17.56
2022-06-03 10:32:44.122,0.56900717318058,-0.08,-4.59,0,22.19
2022-06-03 10:32:44.237,0.684003531932831,0.28,-0.69,0,-1.67
2022-06-03 10:32:44.352,0.798999890685081,0.29,-2.19,4,12.34
2022-06-03 10:32:44.466,0.913000479340553,0.66,0.71,7,16.04
2022-06-03 10:32:44.581,1.02800689637661,0.02,-6.02,8,63.59
2022-06-03 10:32:44.696,1.14300325512886,0.14,-2.3,9,34.48
2022-06-03 10:32:44.810,1.25700384378433,0.36,-1.06,7,37.75
2022-06-03 10:32:44.924,1.3710044324398,0.03,-4.64,3,46.91
2022-06-03 10:32:45.039,1.48600079119205,-0.18,-4.93,1,24.42
2022-06-03 10:32:45.154,1.60100720822811,0,-2.57,0,8.18
2022-06-03 10:32:45.269,1.71600356698036,0.26,-1.24,1,2.57
2022-06-03 10:32:45.383,1.83000415563583,-0.03,-4.7,4,28.04
2022-06-03 10:32:45.499,1.94600634276867,-0.66,-8.51,7,56.79
2022-06-03 10:32:45.613,2.06000693142414,-0.37,-3.47,9,35.97
2022-06-03 10:32:45.724,2.17100009322166,-0.14,-2.84,10,46.48
2022-06-03 10:32:45.838,2.28500068187714,-0.53,-7,8,69.51
2022-06-03 10:32:45.953,2.40000709891319,-0.48,-4.85,4,42.02
2022-06-03 10:32:46.067,2.51400768756866,-0.44,-4.82,2,28.43
2022-06-03 10:32:46.182,2.62900404632092,-0.3,-3.81,0,19.47
2022-06-03 10:32:46.297,2.74400040507317,-0.39,-5.21,1,20.96
2022-06-03 10:32:46.412,2.85900682210922,-0.58,-6.3,3,32.7
2022-06-03 10:32:46.526,2.97300741076469,0,-0.79,6,13.04
2022-06-03 10:32:46.641,3.08800376951694,-0.39,-6.45,8,61.3
2022-06-03 10:32:46.755,3.20200435817242,-0.12,-2.63,10,36.88
2022-06-03 10:32:46.871,3.31800654530525,-0.45,-6.44,9,69.25
2022-06-03 10:32:46.985,3.43200713396072,-0.23,-3.25,5,39.74
2022-06-03 10:32:47.100,3.54700349271297,-0.1,-3.1,2,25.59
2022-06-03 10:32:47.215,3.66199985146523,-0.29,-5.2,1,27.26
2022-06-03 10:32:47.329,3.7760004401207,-0.49,-6.05,0,28.34
2022-06-03 10:32:47.439,3.88600789010525,-0.08,-1.79,2,2.89
2022-06-03 10:32:47.554,4.0010042488575,-0.41,-6.3,5,42.5
2022-06-03 10:32:47.669,4.11600060760975,0.33,1.09,8,12.75
2022-06-03 10:32:47.783,4.23000119626522,-0.77,-11,9,90
2022-06-03 10:32:47.899,4.34600338339806,0.14,1.21,9,14.07
2022-06-03 10:32:48.014,4.46099974215031,-0.25,-5.98,6,65.42
2022-06-03 10:32:48.128,4.57500033080578,-0.39,-5.39,3,37.32
2022-06-03 10:32:48.242,4.68900091946125,-0.56,-6.12,3,31.75
2022-06-03 10:32:48.357,4.80400733649731,-0.35,-3.75,0,23.66
2022-06-03 10:32:48.472,4.91900369524956,-0.37,-4.8,2,17.68
2022-06-03 10:32:48.586,5.03300428390503,-0.38,-4.78,5,30.54
2022-06-03 10:32:48.701,5.14800064265728,-1.04,-10.03,7,69.87
2022-06-03 10:32:48.816,5.26300705969334,-0.18,-0.23,9,16.45
2022-06-03 10:32:48.930,5.37700764834881,-0.72,-8.4,9,78.26
2022-06-03 10:32:49.045,5.49200400710106,-0.55,-4.58,7,45.12
2022-06-03 10:32:49.155,5.6020013988018,-0.64,-6.12,4,47.83
2022-06-03 10:32:49.271,5.71800358593464,-0.55,-4.96,2,27.61
2022-06-03 10:32:49.385,5.83200417459011,-0.42,-4.34,0,20.81
2022-06-03 10:32:49.499,5.94600476324558,-0.61,-6.42,2,25.19
2022-06-03 10:32:49.614,6.06100112199783,-0.72,-6.44,4,35.82
2022-06-03 10:32:49.729,6.17600753903389,-0.46,-3.93,6,31.38
2022-06-03 10:32:49.843,6.29000812768936,-0.01,-1.39,9,30.08
2022-06-03 10:32:49.958,6.40500448644161,-0.88,-10.36,9,90
2022-06-03 10:32:50.074,6.52100667357445,-0.6,-4.31,7,41.18
2022-06-03 10:32:50.188,6.63500726222992,-0.82,-7.31,4,55.34
2022-06-03 10:32:50.302,6.74900785088539,-0.48,-3.62,2,19.37
2022-06-03 10:32:50.416,6.86300843954086,-0.57,-5.86,1,30.04
2022-06-03 10:32:50.533,6.98000639677048,-0.46,-4.52,1,18.71
2022-06-03 10:32:50.647,7.09400698542595,-0.84,-8.09,3,40.15
2022-06-03 10:32:50.761,7.20800757408142,-0.26,-1.8,6,14.86
2022-06-03 10:32:50.876,7.32300393283367,-0.67,-7.56,9,64.71
2022-06-03 10:32:50.986,7.43300132453442,-0.7,-6.04,10,57.46
2022-06-03 10:32:51.101,7.54800774157047,-0.9,-7.54,8,68.02
2022-06-03 10:32:51.216,7.66300410032272,-0.99,-7.4,5,54.05
2022-06-03 10:32:51.331,7.77800045907497,-0.58,-3.67,3,23.18
2022-06-03 10:32:51.445,7.89200104773045,-0.74,-6.79,1,38.42
2022-06-03 10:32:51.560,8.0070074647665,-0.7,-5.72,1,22.44
2022-06-03 10:32:51.674,8.12100805342197,-1.24,-10.25,3,49.8
2022-06-03 10:32:51.789,8.23600441217422,-0.75,-3.95,5,20.01
2022-06-03 10:32:51.904,8.35100077092648,-0.8,-6.53,7,49.19
2022-06-03 10:32:52.019,8.46600718796253,-1.19,-9.41,9,67
2022-06-03 10:32:52.134,8.58100354671478,-0.91,-5.52,9,51.11
2022-06-03 10:32:52.248,8.69500413537025,-1.31,-9.89,6,75.45
2022-06-03 10:32:52.363,8.81000049412251,-0.89,-4.8,3,29.25
2022-06-03 10:32:52.477,8.92400108277798,-0.76,-5.61,1,29.93
2022-06-03 10:32:52.593,9.04000326991081,-0.93,-7.49,1,32.95
2022-06-03 10:32:52.706,9.15300808846951,-1.09,-8.06,2,36.73
2022-06-03 10:32:52.817,9.26400125026703,-1.25,-8.66,5,44.85
2022-06-03 10:32:52.932,9.37900766730309,-0.35,-0.73,7,19.03
2022-06-03 10:32:53.046,9.49300825595856,-1.3,-12.26,8,90
2022-06-03 10:32:53.162,9.60900038480759,-1.14,-6.89,9,49.25
2022-06-03 10:32:53.276,9.72300097346306,-1.47,-10.19,7,76.49
2022-06-03 10:32:53.391,9.83800739049911,-1.35,-7.78,4,48.77
2022-06-03 10:32:53.505,9.95200797915459,-1.12,-6.48,2,33.06
2022-06-03 10:32:53.620,10.0670043379068,-1.21,-8.16,1,38.06
2022-06-03 10:32:53.734,10.1810049265623,-1.06,-6.62,2,26.7
2022-06-03 10:32:53.849,10.2960012853146,-1.33,-9.47,3,49.95
2022-06-03 10:32:53.964,10.4110077023506,-1.28,-7.84,6,39.2
2022-06-03 10:32:54.079,10.5260040611029,-0.0599999999999999,1.81,8,7.73
2022-06-03 10:32:54.193,10.6400046497583,-0.75,-9.11,9,81.51
2022-06-03 10:32:54.308,10.7550010085106,-0.72,-5.91,8,52.15
2022-06-03 10:32:54.423,10.8700074255466,-0.78,-6.43,5,52.66
2022-06-03 10:32:54.537,10.9840080142021,-0.71,-5.68,3,34.52
2022-06-03 10:32:54.648,11.0950011759996,-0.49,-4.13,1,22.65
2022-06-03 10:32:54.763,11.2100075930357,-0.53,-5.52,0,24.89
2022-06-03 10:32:54.877,11.3240081816912,-0.5,-5.02,2,18.77
2022-06-03 10:32:54.992,11.4390045404434,-0.67,-6.52,6,38.75
2022-06-03 10:32:55.106,11.5530051290989,-1.52,-12.66,8,85.63
2022-06-03 10:32:55.222,11.6690073162317,-0.98,-4.58,10,38.48
2022-06-03 10:32:55.336,11.7830079048872,-0.54,-3.44,8,51.88
2022-06-03 10:32:55.451,11.8980042636395,-1.25,-11.04,6,77.63
2022-06-03 10:32:55.565,12.0120048522949,-1.2,-7.6,3,43.05
2022-06-03 10:32:55.681,12.1280070394278,-1.34,-8.86,2,42.73
2022-06-03 10:32:55.795,12.2420076280832,-1.06,-6.02,0,26.89
2022-06-03 10:32:55.909,12.3560082167387,-0.56,-3.21,1,8.6
2022-06-03 10:32:56.024,12.471004575491,-1.23,-10.79,5,58.14
2022-06-03 10:32:56.139,12.5860009342432,-0.62,-3.01,7,24.62
2022-06-03 10:32:56.254,12.7010073512793,-0.69,-6.15,9,56.01
2022-06-03 10:32:56.368,12.8150079399347,-0.86,-7.24,9,64
2022-06-03 10:32:56.479,12.9260011017323,0.05,0.79,7,19.78
2022-06-03 10:32:56.594,13.0410075187683,-0.11,-4.46,4,47.32
2022-06-03 10:32:56.708,13.1550081074238,-0.27,-5.03,2,30.13
2022-06-03 10:32:56.822,13.2690086960793,-0.66,-7.48,1,36.41
2022-06-03 10:32:56.937,13.3840050548315,-0.9,-7.67,0,32.62
2022-06-03 10:32:57.053,13.5000072419643,-0.24,-1.34,3,-2.16
2022-06-03 10:32:57.167,13.6140078306198,-0.14,-3.39,6,32.84
2022-06-03 10:32:57.282,13.7290041893721,-0.84,-9.48,8,72.23
2022-06-03 10:32:57.396,13.8430047780275,-0.38,-2.72,10,33.35
2022-06-03 10:32:57.511,13.9580011367798,-0.75,-7.77,7,75.83
2022-06-03 10:32:57.626,14.0730075538158,-0.62,-5,4,36.71
2022-06-03 10:32:57.741,14.1880039125681,-0.28,-2.91,2,19.95
2022-06-03 10:32:57.855,14.3020045012236,-0.31,-4.62,0,25.78
2022-06-03 10:32:57.969,14.416005089879,-0.36,-4.85,1,17.94
2022-06-03 10:32:58.084,14.5310014486313,-0.66,-7.06,2,36.72
2022-06-03 10:32:58.195,14.6420046687126,-0.84,-7.22,5,39.06
2022-06-03 10:32:58.309,14.7560052573681,0.16,1.6,7,9.26
2022-06-03 10:32:58.424,14.8710016161203,-0.46,-7.74,9,73.96
2022-06-03 10:32:58.539,14.9860080331564,-0.78,-7.62,9,63.82
2022-06-03 10:32:58.654,15.1010043919086,-0.84,-6.74,6,56.93
2022-06-03 10:32:58.768,15.2150049805641,-0.87,-6.65,3,42.64
2022-06-03 10:32:58.883,15.3300013393164,-0.64,-4.7,1,23.08
2022-06-03 10:32:58.997,15.4440019279718,-0.5,-4.58,0,19.66
2022-06-03 10:32:59.113,15.5600041151047,-0.71,-6.85,2,29.32
2022-06-03 10:32:59.227,15.6740047037601,-0.68,-5.72,4,32.64
2022-06-03 10:32:59.342,15.7890010625124,-1.23,-10.28,6,65.02
2022-06-03 10:32:59.456,15.9030016511679,-0.48,-1.84,8,20.48
2022-06-03 10:32:59.571,16.0180080682039,-0.18,-2.66,9,43.78
2022-06-03 10:32:59.685,16.1320086568594,-0.79,-8.89,7,77.24
2022-06-03 10:32:59.800,16.2470050156116,-0.67,-5.33,4,38.24
2022-06-03 10:32:59.915,16.3620013743639,-0.75,-6.46,2,37.27
2022-06-03 10:33:00.025,16.4720088243484,-0.53,-4.29,0,19.82
2022-06-03 10:33:00.141,16.5880009531975,-0.25,-3.04,0,9.6
2022-06-03 10:33:00.255,16.702001541853,-0.71,-8,3,38.98
2022-06-03 10:33:00.370,16.817007958889,-0.53,-4.53,6,30.83
2022-06-03 10:33:00.485,16.9320043176413,-1.38,-12.15,8,85.27
2022-06-03 10:33:00.599,17.0460049062967,-0.99,-5.28,9,42.67
2022-06-03 10:33:00.714,17.161001265049,-0.53,-3.27,7,45.2
2022-06-03 10:33:00.829,17.276007682085,-1.04,-9.39,5,65.89
2022-06-03 10:33:00.943,17.3900082707405,-1.17,-8.21,3,44.6
2022-06-03 10:33:01.058,17.5050046294928,-1.27,-8.5,1,41.43
2022-06-03 10:33:01.173,17.620000988245,-0.96,-5.53,0,19.84
2022-06-03 10:33:01.287,17.7340015769005,-0.72,-4.91,3,18.84
2022-06-03 10:33:01.402,17.8490079939365,-1.1,-9.08,5,57.32
2022-06-03 10:33:01.517,17.9640043526888,-0.68,-4.04,8,29.4
2022-06-03 10:33:01.632,18.079000711441,-1.54,-12.75,9,90
2022-06-03 10:33:01.741,18.188002333045,-0.78,-2.9,8,32.33
2022-06-03 10:33:01.856,18.3030087500811,-0.89,-7.1,6,61.03
2022-06-03 10:33:01.971,18.4180051088333,-1.06,-7.98,4,50.15
2022-06-03 10:33:02.085,18.5320056974888,-1.41,-10.12,2,52.29
2022-06-03 10:33:02.201,18.6480078846216,-1.41,-8.57,1,34.36
2022-06-03 10:33:02.315,18.7620084732771,-0.72,-2.99,4,7.09
2022-06-03 10:33:02.429,18.8760090619326,-0.98,-8.08,4,56.53
2022-06-03 10:33:02.544,18.9910054206848,-0.53,-3.34,7,20.89
2022-06-03 10:33:02.659,19.1060017794371,-0.85,-7.84,9,65.27
2022-06-03 10:33:02.774,19.2210081964731,-1.14,-8.83,9,69.75
2022-06-03 10:33:02.889,19.3360045552254,-0.18,0.24,7,20.46
2022-06-03 10:33:03.003,19.4500051438808,-0.56,-7.05,4,59.61
2022-06-03 10:33:03.118,19.5650015026331,-0.79,-7.26,2,37.9
2022-06-03 10:33:03.232,19.6790020912886,-0.95,-7.58,1,34.21
2022-06-03 10:33:03.348,19.7950042784214,-0.6,-3.99,1,14.29
2022-06-03 10:33:03.462,19.9090048670769,-0.34,-3.43,3,18.01
2022-06-03 10:33:03.573,20.0200080871582,-0.63,-6.97,7,46.83
2022-06-03 10:33:03.687,20.1340086758137,-0.29,-2.94,8,36.67
2022-06-03 10:33:03.801,20.2480092644691,-0.88,-9.11,9,73.48
2022-06-03 10:33:03.916,20.3630056232214,0.27,2.66,7,9.26
2022-06-03 10:33:04.032,20.4790078103542,-0.23,-6.33,6,58.94
2022-06-03 10:33:04.146,20.5930083990097,-0.28,-4.64,3,35.77
2022-06-03 10:33:04.261,20.708004757762,-0.6,-6.92,1,36.65
2022-06-03 10:33:04.375,20.8220053464174,-0.36,-3.59,1,11.82
2022-06-03 10:33:04.489,20.9360059350729,0.13,-0.76,3,5.1
2022-06-03 10:33:04.604,21.0510022938251,-0.33,-6.56,6,47.97
2022-06-03 10:33:04.719,21.1660087108612,0.15,-0.66,8,20.78
2022-06-03 10:33:04.834,21.2810050696135,-0.56,-8.53,10,74.57
2022-06-03 10:33:04.948,21.3950056582689,0.42,2.53,8,15.69
2022-06-03 10:33:05.064,21.5110078454018,-0.08,-5.85,6,60.18
2022-06-03 10:33:05.178,21.6250084340572,-0.13,-4.02,3,31.97
2022-06-03 10:33:05.288,21.735005825758,-0.42,-6.14,2,33.5
2022-06-03 10:33:05.403,21.8500021845102,-0.16,-2.78,1,13.69
2022-06-03 10:33:05.518,21.9650086015463,0.36,0.28,2,-0.48
2022-06-03 10:33:05.633,22.0800049602985,-0.1,-5.74,4,40.05
2022-06-03 10:33:05.748,22.1950013190508,0.11,-2.01,7,22.88
2022-06-03 10:33:05.863,22.3100077360868,-0.58,-8.51,9,73.25
2022-06-03 10:33:05.976,22.4230024963617,0.36,2.15,9,13.92
2022-06-03 10:33:06.091,22.5380089133978,-0.25,-6.94,6,71.39
2022-06-03 10:33:06.206,22.65300527215,-0.3,-4.66,4,32.41
2022-06-03 10:33:06.321,22.7680016309023,-0.57,-6.62,2,40.13
2022-06-03 10:33:06.435,22.8820022195578,-0.31,-3.33,0,14.68
2022-06-03 10:33:06.550,22.9970086365938,0.05,-1.61,0,3.52
2022-06-03 10:33:06.665,23.1120049953461,-0.38,-6.59,3,33.43
2022-06-03 10:33:06.779,23.2260055840015,-0.55,-6.1,7,40.09
2022-06-03 10:33:06.894,23.3410019427538,-0.94,-8.5,8,69.65
2022-06-03 10:33:07.004,23.4510093927383,0.19,2.27,10,8.35
2022-06-03 10:33:07.119,23.5660057514906,-0.58,-8.81,7,87.11
2022-06-03 10:33:07.234,23.6810021102428,-0.45,-4.41,4,32.42
2022-06-03 10:33:07.349,23.7960085272789,-0.65,-6.61,2,39.18
2022-06-03 10:33:07.463,23.9100091159344,-0.43,-3.93,0,17.78
2022-06-03 10:33:07.578,24.0250054746866,-0.22,-3.28,0,11.16
2022-06-03 10:33:07.692,24.1390060633421,-0.53,-6.6,3,31.59
2022-06-03 10:33:07.808,24.2550082504749,-0.82,-7.65,6,48.1
2022-06-03 10:33:07.923,24.3700046092272,-0.9,-6.98,8,50.96
2022-06-03 10:33:08.036,24.4830094277859,0.28,2.89,8,8.55
2022-06-03 10:33:08.151,24.5980057865381,-0.7,-10.21,8,84.89
2022-06-03 10:33:08.266,24.7130021452904,-0.36,-3.15,6,31.9
2022-06-03 10:33:08.381,24.8280085623264,-0.55,-6.2,3,47.44
2022-06-03 10:33:08.495,24.9420091509819,-0.27,-3.09,0,14.45
2022-06-03 10:33:08.611,25.0580012798309,-0.16,-3.45,0,9.85
2022-06-03 10:33:08.721,25.1680087298155,-0.37,-5.63,2,24.51
2022-06-03 10:33:08.835,25.282009318471,-0.55,-6.12,6,34.64
2022-06-03 10:33:08.950,25.3970056772232,-0.57,-5.55,7,49.28
2022-06-03 10:33:09.065,25.5120020359755,0.5,3.2,10,3.85
2022-06-03 10:33:09.180,25.6270084530115,-0.44,-9.06,9,90
2022-06-03 10:33:09.294,25.741009041667,0.11,-0.56,7,22.83
2022-06-03 10:33:09.409,25.8560054004192,-0.23,-5.65,4,51.62
2022-06-03 10:33:09.523,25.9700059890747,0.02,-2.19,1,14.37
2022-06-03 10:33:09.638,26.085002347827,0.14,-2.24,0,8.67
2022-06-03 10:33:09.752,26.1990029364824,-0.19,-5.49,1,24.09
2022-06-03 10:33:09.867,26.3140093535185,-0.12,-3.46,4,16.47
2022-06-03 10:33:09.983,26.4300014823675,-0.2,-4.44,7,38.13
2022-06-03 10:33:10.097,26.544002071023,0.88,4.61,9,3.42
2022-06-03 10:33:10.211,26.6580026596785,-0.0399999999999999,-7.5,9,82.19
2022-06-03 10:33:10.326,26.7730090767145,0.39,-0.02,8,23.51
2022-06-03 10:33:10.437,26.884002238512,0.0700000000000001,-4.48,5,51.43
2022-06-03 10:33:10.551,26.9980028271675,0.3,-1.18,1,14.54
2022-06-03 10:33:10.667,27.1140050143003,0.48,-0.78,0,1.38
2022-06-03 10:33:10.781,27.2280056029558,0.0700000000000001,-4.82,1,22.52
2022-06-03 10:33:10.895,27.3420061916113,0.31,-1.14,3,5.54
2022-06-03 10:33:11.010,27.4570025503635,0.01,-4.62,5,36.69
2022-06-03 10:33:11.126,27.5730047374964,1.04,5.05,8,-8.21
2022-06-03 10:33:11.239,27.6860095560551,0.24,-5.96,9,71.99
2022-06-03 10:33:11.354,27.8010059148073,0.3,-1.95,9,36.47
2022-06-03 10:33:11.469,27.9160022735596,0.1,-3.8,6,50.68
2022-06-03 10:33:11.583,28.030002862215,0.23,-1.89,3,22.69
2022-06-03 10:33:11.698,28.1450092792511,0.49,-0.42,0,7.5
2022-06-03 10:33:11.813,28.2600056380033,0.23,-3.59,0,14.5
2022-06-03 10:33:11.927,28.3740062266588,0.43,-0.9,2,1.16
2022-06-03 10:33:12.038,28.4850094467402,-0.08,-5.87,4,39.67
2022-06-03 10:33:12.152,28.5989999771118,0.61,1.93,7,2.21
2022-06-03 10:33:12.267,28.7140063941479,0.47,-2.15,8,45.39
2022-06-03 10:33:12.383,28.8300085812807,-0.23,-7.29,10,64.53
2022-06-03 10:33:12.497,28.9440091699362,0.04,-1.96,7,39.78
2022-06-03 10:33:12.612,29.0590055286884,-0.2,-5.17,4,46.29
2022-06-03 10:33:12.726,29.1730061173439,0.12,-1.44,2,11.27
2022-06-03 10:33:12.841,29.2880024760962,0.17,-2.46,0,15.65
2022-06-03 10:33:12.955,29.4020030647516,0.13,-3.05,1,10.3
2022-06-03 10:33:13.071,29.5180052518845,-0.09,-4.59,3,25.17
2022-06-03 10:33:13.185,29.6320058405399,-0.0399999999999999,-3.28,5,25.77
2022-06-03 10:33:13.299,29.7460064291954,0.81,3.35,7,2.27
2022-06-03 10:33:13.414,29.8610027879477,-0.21,-8.58,9,78.22
2022-06-03 10:33:13.529,29.9760092049837,0.28,-0.11,8,25.14
2022-06-03 10:33:13.644,30.091005563736,-0.1,-5.41,6,55.96
2022-06-03 10:33:13.759,30.2060019224882,0.18,-1.43,3,19.57
2022-06-03 10:33:13.869,30.3160093724728,0.35,-1.25,1,12.22
2022-06-03 10:33:13.983,30.4299999028444,0.05,-4.44,1,22.69
